Joplin, MO

7:03 AM CST on December 07, 2019 (GMT -0600)
Joplin Regional

Weather History for KJLN - July, 2019

Change the Weather History Date:

Monday, July 22, 2019

  Actual Average Record
Temperature  
Mean Temperature 74 °F 81 °F  
Max Temperature 82 °F 91 °F 108 °F (1954)
Min Temperature 66 °F 70 °F 51 °F (1970)
Degree Days  
Heating Degree Days 0 0  
Month to date heating degree days 0 0  
Since 1 June heating degree days 1 5  
Since 1 July heating degree days 0 0  
Cooling Degree Days 9 16  
Month to date cooling degree days 327 331  
Year to date cooling degree days 755 829  
Since 1 June cooling degree days 602 649  
Growing Degree Days 24 (Base 50)    
Moisture  
Dew Point 68 °F    
Average Humidity 77    
Maximum Humidity 100    
Minimum Humidity 54    
Precipitation  
Precipitation 0.48 in 0.11 in 1.50 in (2000)
Month to date precipitation 5.35 2.87  
Year to date precipitation 41.99 26.68  
Sea Level Pressure  
Sea Level Pressure 30.03 in    
Wind  
Wind Speed 10 mph (NNW)    
Max Wind Speed 23 mph    
Max Gust Speed 34 mph    
Visibility 8 miles    
Events Rain , Thunderstorm    
T = Trace of Precipitation, MM = Missing Value Source: NWS Daily Summary

Daily Weather History Graph

Daily Weather History Graph

Search for Another Location

Airport or City:

Astronomy

Jul. 22, 2019 Rise Set
Actual Time 6:14 AM CDT 8:33 PM CDT
Civil Twilight 5:45 AM CDT 9:03 PM CDT
Nautical Twilight 5:08 AM CDT 9:39 PM CDT
Astronomical Twilight 4:28 AM CDT 10:19 PM CDT
Moon No Moon Rise 11:25 AM CDT (7/22)
Length of Visible Light 15h 18m
Length of Day
14h 18m
Waning Gibbous, 72% of the Moon is Illuminated
Jul 22
Waning Gibbous
Jul 24
Last Quarter
Jul 31
New
Aug 7
First Quarter
Aug 15
Full

Hourly Weather History & Observations

Time (CDT) Temp. Heat Index Dew Point Humidity Pressure Visibility Wind Dir Wind Speed Gust Speed Precip Events Conditions
12:02 AM 71.1 °F - 70.0 °F 96% 29.97 in 6.0 mi SSW 4.6 mph - 0.01 in Rain , Thunderstorm Rain
12:18 AM 71.1 °F - 70.0 °F 96% 30.01 in 6.0 mi WSW 11.5 mph - 0.04 in Rain , Thunderstorm Thunderstorms and Rain
12:33 AM 71.1 °F - 70.0 °F 96% 30.02 in 6.0 mi West 9.2 mph - 0.07 in Rain Rain
12:53 AM 71.1 °F - 69.1 °F 93% 29.99 in 7.0 mi WSW 4.6 mph - 0.10 in Rain Light Rain
1:08 AM 70.0 °F - 69.1 °F 97% 30.01 in 7.0 mi SSW 5.8 mph - 0.02 in Rain Light Rain
1:53 AM 70.0 °F - 69.1 °F 97% 29.96 in 10.0 mi SW 5.8 mph - 0.05 in Rain Light Rain
2:37 AM 70.0 °F - 69.1 °F 97% 29.99 in 10.0 mi SW 8.1 mph - 0.00 in   Overcast
2:48 AM 69.8 °F - 69.8 °F 100% 29.99 in 10.0 mi SW 6.9 mph - 0.00 in   Mostly Cloudy
2:53 AM 70.0 °F - 70.0 °F 100% 29.96 in 10.0 mi West 5.8 mph - 0.00 in   Scattered Clouds
3:00 AM 70.0 °F - 70.0 °F 100% 29.99 in 10.0 mi West 4.6 mph - N/A   Scattered Clouds
3:11 AM 69.8 °F - 69.8 °F 100% 30.00 in 10.0 mi WSW 5.8 mph - N/A   Mostly Cloudy
3:53 AM 71.1 °F - 70.0 °F 96% 29.96 in 10.0 mi West 4.6 mph - N/A   Overcast
4:53 AM 71.1 °F - 70.0 °F 96% 29.95 in 7.0 mi West 4.6 mph - 0.01 in Rain Light Rain
5:12 AM 71.1 °F - 70.0 °F 96% 29.99 in 1.5 mi West 4.6 mph - 0.09 in Rain Heavy Rain
5:20 AM 71.1 °F - 70.0 °F 96% 29.99 in 1.2 mi West 4.6 mph - 0.15 in Rain Heavy Rain
5:36 AM 71.1 °F - 70.0 °F 96% 29.99 in 2.0 mi SW 6.9 mph - 0.26 in Rain Rain
5:44 AM 71.1 °F - 70.0 °F 96% 29.99 in 7.0 mi SW 6.9 mph - 0.26 in Rain Light Rain
5:53 AM 71.1 °F - 70.0 °F 96% 29.96 in 6.0 mi SW 4.6 mph - 0.27 in Rain Light Rain
6:14 AM 71.1 °F - 70.0 °F 96% 29.99 in 4.0 mi Variable 4.6 mph - 0.01 in Rain Rain
6:36 AM 71.1 °F - 70.0 °F 96% 29.99 in 1.8 mi Calm Calm - 0.08 in Rain Rain
6:49 AM 71.6 °F - 69.8 °F 94% 30.00 in 3.0 mi NNE 5.8 mph - 0.10 in Rain Light Rain
6:53 AM 71.1 °F - 70.0 °F 96% 29.97 in 3.0 mi NNE 5.8 mph - 0.11 in Rain Light Rain
7:21 AM 71.1 °F - 70.0 °F 96% 30.02 in 3.0 mi North 10.4 mph - 0.03 in Rain Light Rain
7:53 AM 71.1 °F - 70.0 °F 96% 30.00 in 4.0 mi North 9.2 mph - 0.04 in Rain Light Rain
8:00 AM 71.1 °F - 70.0 °F 96% 30.03 in 2.5 mi North 11.5 mph - 0.00 in Rain Light Rain
8:10 AM 71.1 °F - 70.0 °F 96% 30.03 in 9.0 mi North 10.4 mph 18.4 mph 0.01 in Rain Light Rain
8:53 AM 72.0 °F - 70.0 °F 93% 30.02 in 10.0 mi North 18.4 mph 26.5 mph 0.01 in   Overcast
10:50 AM 75.2 °F - 69.8 °F 83% 30.09 in 10.0 mi NNE 12.7 mph 29.9 mph N/A   Mostly Cloudy
10:53 AM 75.0 °F - 69.1 °F 82% 30.07 in 10.0 mi NNE 13.8 mph 21.9 mph N/A   Mostly Cloudy
11:36 AM 77.0 °F - 66.9 °F 71% 30.11 in 10.0 mi North 13.8 mph 33.4 mph N/A   Scattered Clouds
11:53 AM 77.0 °F - 64.0 °F 64% 30.08 in 10.0 mi NNE 18.4 mph 31.1 mph N/A   Scattered Clouds
12:53 PM 79.0 °F - 64.9 °F 62% 30.08 in 10.0 mi NNE 15.0 mph 25.3 mph N/A   Scattered Clouds
1:53 PM 80.1 °F 81.7 °F 64.0 °F 58% 30.08 in 10.0 mi North 15.0 mph 24.2 mph N/A   Clear
2:53 PM 81.0 °F 82.2 °F 63.0 °F 54% 30.08 in 10.0 mi NNE 11.5 mph 20.7 mph N/A   Clear
3:53 PM 82.0 °F 83.8 °F 64.9 °F 56% 30.08 in 10.0 mi North 11.5 mph - N/A   Partly Cloudy
4:53 PM 81.0 °F 82.5 °F 64.0 °F 56% 30.08 in 10.0 mi NNE 12.7 mph - N/A   Scattered Clouds
5:53 PM 79.0 °F - 63.0 °F 58% 30.07 in 10.0 mi NNE 9.2 mph - N/A   Partly Cloudy
6:53 PM 80.1 °F 81.5 °F 63.0 °F 56% 30.07 in 10.0 mi NE 12.7 mph - N/A   Scattered Clouds
7:53 PM 75.9 °F - 63.0 °F 64% 30.09 in 10.0 mi NNE 5.8 mph 16.1 mph N/A   Clear
8:53 PM 72.0 °F - 62.1 °F 71% 30.10 in 10.0 mi NNE 5.8 mph - N/A   Clear
9:53 PM 69.1 °F - 62.1 °F 78% 30.12 in 10.0 mi NNE 6.9 mph - N/A   Clear
10:53 PM 66.9 °F - 63.0 °F 87% 30.13 in 10.0 mi North 5.8 mph - N/A   Clear
11:53 PM 66.0 °F - 62.1 °F 87% 30.15 in 10.0 mi North 5.8 mph - N/A   Clear